This demonstration page uses our WeatherBlox Daily Observations layout. Learn more.

Left ArrowRight Arrow

41.55636, -103.73856

Hourly Observations for August 5, 2022

Temp ( °F °C ) Dew Point ( °F °C ) Humidity (%) Winds ( mph kmh ) Pressure ( in mb ) Visibility ( mi km ) Precip ( " mm )
12:58 am 00:58 Clear 78 25.4 53 11.9 43 43 SSW 26 43 29.75 1008 10 16 0.00 0.00
1:58 am 01:58 Clear 77 25 54 12.2 45 45 SSW 30 48 29.74 1007 10 16 0.00 0.00
2:58 am 02:58 Clear 75 24 54 12.3 48 48 SSW 26 43 29.74 1007 10 16 0.00 0.00
3:58 am 03:58 Clear 76 24.7 54 12 45 45 SW 29 46 29.72 1007 10 16 0.00 0.00
4:58 am 04:58 Partly Cloudy 75 23.7 54 12.3 49 49 SW 23 37 29.73 1007 10 16 0.00 0.00
5:58 am 05:58 Mostly Sunny 74 23.1 54 12.4 51 51 SW 23 37 29.73 1007 10 16 0.00 0.00
6:58 am 06:58 Mostly Sunny 72 22.4 55 12.6 54 54 W 10 17 29.78 1008 10 16 0.00 0.00
7:58 am 07:58 Sunny 77 25.1 55 13 47 47 WSW 12 19 29.78 1008 10 16 0.00 0.00
8:58 am 08:58 Sunny 85 29.2 54 12.1 35 35 WSW 16 26 29.76 1008 10 16 0.00 0.00
9:58 am 09:58 Sunny 94 34.4 42 5.8 17 17 W 15 24 29.75 1007 10 16 0.00 0.00
10:58 am 10:58 Sunny 96 35.5 44 6.7 17 17 NNW 10 17 29.74 1007 10 16 0.00 0.00
11:58 am 11:58 Sunny 96 35.5 39 3.9 14 14 ESE 3 6 29.74 1007 10 16 0.00 0.00
12:58 pm 12:58 Sunny 99 37.1 39 4.1 13 13 Calm 29.72 1006 10 16 0.00 0.00
1:58 pm 13:58 Sunny 102 38.8 40 4.2 12 12 WNW 10 17 29.69 1006 10 16 0.00 0.00
2:58 pm 14:58 Sunny 102 38.8 40 4.2 12 12 SSW 8 13 29.67 1005 10 16 0.00 0.00
3:58 pm 15:58 Partly Cloudy 103 39.5 38 3.5 11 11 SSW 3 6 29.65 1004 10 16 0.00 0.00
4:58 pm 16:58 Mostly Cloudy 98 36.5 40 4.7 14 14 SSW 15 24 29.65 1004 10 16 0.00 0.00
5:58 pm 17:58 Cloudy 91 32.9 44 6.9 20 20 NW 22 35 29.69 1006 10 16 0.00 0.00
6:58 pm 18:58 Cloudy 84 28.7 51 10.4 32 32 NNW 16 26 29.73 1007 10 16 0.00 0.00
7:58 pm 19:58 Cloudy 82 27.6 52 11.2 36 36 E 6 9 29.77 1008 10 16 0.00 0.00
8:58 pm 20:58 Mostly Cloudy 77 25 57 13.8 50 50 WNW 5 7 29.82 1010 10 16 0.00 0.00
9:58 pm 21:58 Cloudy with Light Rain 74 23.6 59 14.8 58 58 WNW 9 15 29.86 1011 10 16 0.00 0.00
10:58 pm 22:58 Cloudy 70 21.3 61 16 72 72 NW 8 13 29.83 1010 10 16 0.01 0.25
11:58 pm 23:58 Cloudy 72 22.1 59 15.2 65 65 NNW 15 24 29.82 1010 10 16 0.00 0.00

Powered by AerisWeather